Location: Asheville, NC
(35.6000°N, 82.5500°W)
Time: 21:58:28
(UTC-04:00)

PicSat - Visible Passes

Search period start: 15 August 2018 00:00
Search period end: 25 August 2018 00:00
Orbit: 491 x 502 km, 97.5° (Epoch: 14 August)

Date Brightness Start Highest point End Pass type
(mag) Time Alt. Az. Time Alt. Az. Time Alt. Az.
15 Aug ? 22:23:26 23° NNE 22:23:26 23° NNE 22:25:15 10° N visible
16 Aug ? 22:02:42 15° NE 22:02:42 15° NE 22:03:58 10° NNE visible
16 Aug ? 23:37:19 14° NW 23:37:19 14° NW 23:38:01 10° NW visible
17 Aug ? 23:16:35 20° NNW 23:16:35 20° NNW 23:17:52 10° NNW visible
18 Aug ? 22:55:52 23° N 22:55:52 23° N 22:57:22 10° N visible
19 Aug ? 22:35:08 22° NNE 22:35:08 22° NNE 22:36:37 10° N visible
20 Aug ? 22:14:23 16° NNE 22:14:23 16° NNE 22:15:34 10° NNE visible
21 Aug ? 21:53:40 11° NE 21:53:40 11° NE 21:53:55 10° NE visible
21 Aug ? 23:28:16 13° NW 23:28:16 13° NW 23:28:50 10° NNW visible
22 Aug ? 23:07:32 17° NNW 23:07:32 17° NNW 23:08:30 10° NNW visible
23 Aug ? 22:46:48 18° N 22:46:48 18° N 22:47:52 10° N visible
24 Aug ? 22:26:04 16° NNE 22:26:04 16° NNE 22:26:58 10° N visible
